DW0148 Weather Reports


time (UTC)temp
C
wind
direction
speed
KPH
gust
KPH
rain 1hr
cm
rain 24hr
cm
rain mn
cm
humidity
%
barometer
mb
20180425213534 16 359 1.6 8.0 0.00 0.08 0.00 72 1015.7
20180425213033 16 328 1.6 8.0 0.00 0.08 0.00 70 1015.7
20180425212533 16 286 3.2 9.7 0.00 0.08 0.00 70 1015.7
20180425212032 16 16 3.2 9.7 0.00 0.08 0.00 70 1015.7
20180425211531 16 345 4.8 12.9 0.00 0.08 0.00 71 1015.4
20180425211030 16 26 4.8 12.9 0.00 0.08 0.00 70 1015.4
20180425210529 16 25 1.6 8.0 0.00 0.08 0.00 70 1015.4
20180425210028 16 236 1.6 4.8 0.00 0.08 0.00 72 1015.4
20180425205528 16 281 0.0 4.8 0.00 0.08 0.00 71 1015.4
20180425205027 16 304 3.2 8.0 0.00 0.08 0.00 71 1015.4
20180425204526 16 218 1.6 9.7 0.00 0.08 0.00 72 1015.4
20180425204025 16 186 3.2 11.3 0.00 0.08 0.00 71 1015.4
20180425203524 16 305 3.2 14.5 0.00 0.08 0.00 73 1015.4
20180425203023 17 160 4.8 14.5 0.00 0.08 0.00 72 1015.4
20180425202522 17 90 1.6 6.4 0.00 0.08 0.00 70 1015.4
20180425202021 17 56 1.6 6.4 0.00 0.08 0.00 70 1015.4
20180425201520 17 16 1.6 4.8 0.00 0.08 0.00 71 1015.4
20180425201019 17 199 1.6 12.9 0.00 0.08 0.00 69 1015.4
20180425200518 17 250 3.2 12.9 0.00 0.08 0.00 69 1015.4
20180425200017 17 291 3.2 16.1 0.00 0.08 0.00 70 1015.4
20180425195516 17 337 6.4 16.1 0.00 0.08 0.00 68 1015.1
20180425195016 17 5 1.6 9.7 0.00 0.08 0.00 69 1015.4
20180425194515 16 246 1.6 1.6 0.00 0.08 0.00 70 1015.4
20180425194014 16 120 1.6 4.8 0.00 0.08 0.00 70 1015.4
20180425193513 16 224 1.6 8.0 0.00 0.08 0.00 70 1015.4
20180425193013 16 200 1.6 8.0 0.00 0.08 0.00 72 1015.4
20180425192512 16 210 3.2 9.7 0.00 0.08 0.00 71 1015.4
20180425192011 17 169 4.8 9.7 0.00 0.08 0.00 69 1015.7
20180425191510 17 223 1.6 4.8 0.00 0.08 0.00 72 1015.7
20180425191009 17 200 1.6 9.7 0.00 0.08 0.00 70 1015.4
20180425190508 17 116 1.6 9.7 0.00 0.08 0.00 72 1015.7
20180425190007 17 265 1.6 12.9 0.00 0.08 0.00 70 1015.7
20180425185506 17 113 3.2 12.9 0.00 0.08 0.00 70 1015.4
20180425185005 17 153 1.6 6.4 0.00 0.10 0.00 70 1015.4
20180425184504 17 247 1.6 8.0 0.00 0.10 0.00 67 1015.1
20180425184003 17 358 3.2 8.0 0.00 0.13 0.00 67 1015.1
20180425183502 17 216 3.2 8.0 0.00 0.13 0.00 69 1015.1
20180425183001 17 143 3.2 8.0 0.00 0.15 0.00 70 1014.7
20180425182500 17 253 1.6 6.4 0.00 0.15 0.00 71 1015.1
20180425181959 17 245 1.6 4.8 0.00 0.15 0.00 71 1015.1
20180425181457 17 145 3.2 4.8 0.00 0.15 0.00 71 1015.4
20180425180957 17 217 3.2 14.5 0.00 0.15 0.00 71 1015.4
20180425180455 17 196 1.6 14.5 0.00 0.15 0.00 69 1015.4
20180425175954 17 1 3.2 17.7 0.00 0.15 0.00 69 1015.4
20180425175452 17 358 9.7 17.7 0.00 0.15 0.00 68 1015.4
20180425174951 16 46 1.6 12.9 0.00 0.15 0.00 72 1015.4
20180425174450 16 339 6.4 12.9 0.00 0.15 0.00 74 1015.4
20180425173949 16 340 3.2 9.7 0.00 0.15 0.00 71 1015.4
20180425173448 16 350 3.2 12.9 0.00 0.15 0.00 73 1015.7
20180425172947 16 24 3.2 12.9 0.00 0.15 0.00 73 1015.7
20180425172447 16 291 1.6 6.4 0.00 0.15 0.00 74 1015.7
20180425171945 16 173 3.2 6.4 0.00 0.15 0.00 76 1015.7
20180425171445 16 5 0.0 4.8 0.00 0.15 0.00 77 1015.7
20180425170944 16 4 0.0 9.7 0.00 0.15 0.00 77 1015.7
20180425170443 16 6 1.6 9.7 0.00 0.15 0.00 74 1015.7
20180425165942 16 32 1.6 12.9 0.00 0.15 0.00 73 1015.7
20180425165441 16 5 6.4 12.9 0.00 0.15 0.00 72 1015.7
20180425164940 16 7 4.8 16.1 0.00 0.15 0.00 75 1015.4
20180425164439 16 326 6.4 16.1 0.00 0.15 0.00 72 1015.4
20180425163938 16 5 6.4 12.9 0.00 0.15 0.00 72 1015.7
20180425163437 16 347 4.8 12.9 0.00 0.15 0.00 71 1015.7
20180425162936 17 22 1.6 8.0 0.00 0.15 0.00 71 1015.7
20180425162435 17 70 1.6 8.0 0.00 0.15 0.00 72 1015.7
20180425161934 17 210 4.8 9.7 0.00 0.15 0.00 71 1015.7
20180425161433 16 3 6.4 9.7 0.00 0.15 0.00 72 1015.7
20180425160932 16 13 4.8 9.7 0.00 0.15 0.00 75 1015.7
20180425160431 16 19 4.8 9.7 0.00 0.15 0.00 74 1015.7
20180425155930 16 6 3.2 14.5 0.00 0.15 0.00 75 1016.1
20180425155430 16 331 4.8 14.5 0.00 0.15 0.00 77 1016.1
20180425154929 16 63 4.8 8.0 0.00 0.15 0.00 72 1015.7
20180425154428 16 6 3.2 12.9 0.00 0.15 0.00 75 1015.7
20180425153927 16 356 3.2 12.9 0.00 0.15 0.00 75 1015.7
20180425153425 16 23 6.4 12.9 0.00 0.15 0.00 75 1015.7
20180425152925 16 351 3.2 9.7 0.00 0.15 0.00 76 1015.7
20180425152424 16 5 6.4 9.7 0.00 0.15 0.00 76 1015.7
20180425151922 15 59 3.2 11.3 0.00 0.15 0.00 76 1015.7
20180425151421 15 10 3.2 12.9 0.00 0.15 0.00 77 1015.7
20180425150920 15 13 3.2 14.5 0.00 0.15 0.00 78 1016.1
20180425150419 15 342 6.4 14.5 0.00 0.15 0.00 78 1015.7
20180425145918 15 344 3.2 12.9 0.00 0.15 0.00 79 1016.1
20180425145417 15 345 3.2 8.0 0.00 0.15 0.00 79 1016.1
20180425144916 15 346 3.2 12.9 0.00 0.15 0.00 81 1015.7
20180425144415 15 344 3.2 12.9 0.00 0.15 0.00 79 1016.1
20180425143915 15 294 3.2 12.9 0.00 0.15 0.00 81 1016.1
20180425143414 15 286 1.6 14.5 0.00 0.15 0.00 83 1016.1
20180425142913 14 222 1.6 14.5 0.00 0.15 0.00 83 1015.7
20180425142412 14 341 3.2 8.0 0.00 0.15 0.00 85 1015.7
20180425141911 14 345 3.2 4.8 0.00 0.15 0.00 85 1015.7
20180425141410 14 325 0.0 4.8 0.00 0.15 0.00 85 1015.7
20180425140909 14 332 3.2 4.8 0.00 0.15 0.00 84 1015.7
20180425140408 14 1 0.0 4.8 0.00 0.15 0.00 85 1015.7
20180425135907 14 359 0.0 6.4 0.00 0.15 0.00 84 1015.7
20180425135406 14 352 1.6 6.4 0.00 0.15 0.00 84 1015.7
20180425134904 14 208 1.6 4.8 0.00 0.15 0.00 84 1015.7
20180425134403 14 6 1.6 6.4 0.00 0.15 0.00 85 1015.7
20180425133902 14 41 3.2 6.4 0.00 0.15 0.00 85 1015.7
20180425133402 14 332 1.6 1.6 0.00 0.15 0.00 87 1015.7
20180425132900 13 328 0.0 1.6 0.00 0.15 0.00 88 1015.4
20180425132359 13 327 1.6 1.6 0.00 0.15 0.00 89 1015.7
20180425131858 13 335 0.0 3.2 0.00 0.15 0.00 90 1015.4
20180425131357 13 332 1.6 3.2 0.00 0.15 0.00 89 1015.4
20180425130856 13 352 1.6 4.8 0.00 0.15 0.00 91 1015.4
20180425130355 12 51 3.2 4.8 0.00 0.15 0.00 94 1015.4
20180425125854 12 30 1.6 1.6 0.00 0.15 0.00 95 1015.4
20180425125353 12 30 0.0 0.0 0.00 0.15 0.00 95 1015.4
20180425124852 12 32 0.0 0.0 0.00 0.15 0.00 95 1015.4
20180425124351 12 32 0.0 1.6 0.00 0.15 0.00 95 1015.4
20180425123850 12 32 0.0 1.6 0.00 0.15 0.00 95 1015.4
20180425123349 12 32 0.0 1.6 0.00 0.15 0.00 95 1015.4
20180425122848 12 30 0.0 1.6 0.00 0.15 0.00 95 1015.4
20180425122347 12 28 0.0 1.6 0.00 0.15 0.00 95 1015.4
20180425121846 12 29 0.0 1.6 0.00 0.18 0.00 96 1015.1
20180425121345 12 28 0.0 1.6 0.00 0.18 0.00 96 1015.1
20180425120844 12 28 0.0 1.6 0.00 0.18 0.00 96 1015.1
20180425120343 12 29 0.0 1.6 0.00 0.18 0.00 96 1014.7
20180425115842 12 42 0.0 1.6 0.00 0.18 0.00 96 1014.7
20180425115341 12 42 1.6 1.6 0.00 0.18 0.00 96 1014.7
20180425114840 12 32 1.6 1.6 0.00 0.18 0.00 96 1014.7
20180425114339 12 32 1.6 1.6 0.00 0.18 0.00 96 1014.4
20180425113838 12 32 1.6 1.6 0.00 0.18 0.00 96 1014.4
20180425113337 11 25 1.6 1.6 0.00 0.18 0.00 95 1014.4
20180425112836 11 25 0.0 0.0 0.00 0.20 0.00 95 1014.4
20180425112335 11 25 0.0 0.0 0.00 0.20 0.00 95 1014.4
20180425111834 11 25 0.0 0.0 0.00 0.20 0.00 95 1014.4
20180425111333 11 25 0.0 0.0 0.00 0.23 0.00 95 1014.4
20180425110832 11 25 0.0 0.0 0.00 0.23 0.00 95 1014.4
20180425110331 11 25 0.0 0.0 0.00 0.28 0.00 95 1014.1
20180425105830 11 25 0.0 0.0 0.00 0.28 0.00 95 1014.1
20180425105329 11 25 0.0 0.0 0.00 0.33 0.00 95 1014.1
20180425104829 11 25 0.0 1.6 0.00 0.36 0.00 95 1014.1
20180425104327 11 25 0.0 1.6 0.00 0.38 0.00 95 1014.1
20180425103827 11 25 0.0 1.6 0.00 0.38 0.00 95 1014.1
20180425103326 11 25 0.0 0.0 0.00 0.41 0.00 95 1014.1
20180425102825 11 25 0.0 0.0 0.00 0.43 0.00 95 1014.1
20180425102324 11 25 0.0 0.0 0.00 0.43 0.00 95 1013.7
20180425101823 11 25 0.0 0.0 0.00 0.43 0.00 95 1013.7
20180425101322 11 25 0.0 0.0 0.00 0.46 0.00 95 1013.7
20180425100821 11 25 0.0 0.0 0.00 0.46 0.00 95 1013.7
20180425100320 11 25 0.0 0.0 0.00 0.46 0.00 95 1013.7
20180425095820 11 25 0.0 0.0 0.00 0.46 0.00 95 1013.7
20180425095318 11 25 0.0 0.0 0.00 0.46 0.00 95 1013.4
20180425094817 11 25 0.0 0.0 0.00 0.48 0.00 95 1013.7
20180425094313 11 25 0.0 0.0 0.00 0.51 0.00 95 1013.7
20180425093812 12 25 0.0 0.0 0.00 0.53 0.00 95 1013.4
20180425093311 12 25 0.0 1.6 0.00 0.53 0.00 95 1013.4
20180425092810 12 25 0.0 1.6 0.00 0.56 0.00 95 1013.4
20180425092309 12 25 0.0 1.6 0.00 0.58 0.00 95 1013.4
20180425091808 12 25 0.0 1.6 0.00 0.61 0.00 95 1013.4
20180425091308 12 25 0.0 0.0 0.00 0.61 0.00 95 1013.4
20180425090807 12 25 0.0 0.0 0.00 0.64 0.00 95 1013.4
20180425090306 12 25 0.0 0.0 0.00 0.64 0.00 95 1013.7
20180425085805 12 24 0.0 0.0 0.00 0.64 0.00 95 1013.7
20180425085305 12 25 0.0 0.0 0.00 0.66 0.00 95 1013.4
20180425084803 12 25 0.0 0.0 0.00 0.69 0.00 95 1013.7
20180425084302 12 25 0.0 0.0 0.00 0.71 0.00 95 1013.4
20180425083801 12 29 0.0 0.0 0.00 0.71 0.00 95 1013.4
20180425083300 12 29 0.0 0.0 0.00 0.74 0.00 95 1013.4
20180425082759 12 29 0.0 0.0 0.00 0.79 0.00 95 1013.4
20180425082258 12 30 0.0 0.0 0.00 0.89 0.00 95 1013.4
20180425081757 12 29 0.0 0.0 0.00 0.97 0.00 95 1013.4
20180425081256 12 29 0.0 0.0 0.00 0.99 0.00 95 1013.4
20180425080755 12 28 0.0 0.0 0.00 1.04 0.00 95 1013.4
20180425080254 12 28 0.0 0.0 0.00 1.07 0.00 95 1013.4
20180425075753 12 28 0.0 0.0 0.00 1.09 0.00 95 1013.4
20180425075252 12 28 0.0 0.0 0.00 1.12 0.00 95 1013.4
20180425074751 12 28 0.0 0.0 0.00 1.12 0.00 95 1013.4
20180425074250 12 29 0.0 0.0 0.00 1.12 0.00 95 1013.4
20180425073750 12 29 0.0 0.0 0.00 1.12 0.00 95 1013.4
20180425073249 12 28 0.0 0.0 0.00 1.12 0.00 95 1013.4
20180425072748 12 28 0.0 0.0 0.00 1.12 0.00 95 1013.4
20180425072246 12 28 0.0 0.0 0.00 1.12 0.00 95 1013.4
20180425071746 12 29 0.0 0.0 0.00 1.12 0.00 95 1013.4
20180425071245 12 28 0.0 0.0 0.00 1.12 0.00 95 1013.4
20180425070744 12 29 0.0 0.0 0.00 1.14 0.00 95 1013.4
20180425070243 12 28 0.0 0.0 0.00 1.14 0.00 95 1013.4
20180425065742 12 28 0.0 0.0 0.00 1.14 0.00 95 1013.4
20180425065241 12 28 0.0 0.0 0.00 1.14 0.00 95 1013.4
20180425064740 12 28 0.0 0.0 0.00 1.17 0.00 95 1013.4
20180425064239 12 28 0.0 0.0 0.00 1.19 0.00 95 1013.4
20180425063738 12 29 0.0 0.0 0.00 1.22 0.00 95 1013.4
20180425063237 12 28 0.0 0.0 0.00 1.24 0.00 95 1013.4
20180425062736 12 28 0.0 1.6 0.00 1.30 0.00 95 1013.7
20180425062235 12 29 0.0 1.6 0.00 1.40 0.00 95 1013.7
20180425061735 12 28 0.0 1.6 0.00 1.45 0.00 95 1013.7
20180425061233 12 29 0.0 1.6 0.00 1.55 0.00 95 1013.7
20180425060733 12 30 0.0 0.0 0.00 1.68 0.00 95 1013.7
20180425060232 12 30 0.0 0.0 0.00 1.73 0.00 95 1013.7
20180425055730 12 30 0.0 0.0 0.00 1.83 0.00 95 1013.7
20180425055229 12 30 0.0 0.0 0.00 1.93 0.00 95 1013.7
20180425054728 12 30 0.0 1.6 0.00 1.98 0.00 95 1013.7
20180425054227 12 30 0.0 1.6 0.00 2.06 0.00 95 1013.7
20180425053726 12 30 0.0 1.6 0.00 2.11 0.00 95 1013.7
20180425053225 12 30 1.6 1.6 0.00 2.18 0.00 95 1014.1
20180425052724 12 30 1.6 1.6 0.00 2.29 0.00 95 1014.1
20180425052223 12 30 1.6 1.6 0.00 2.36 0.00 95 1014.1
20180425051722 12 30 0.0 0.0 0.00 2.46 0.00 95 1014.1
20180425051215 11 30 0.0 0.0 0.00 2.62 0.00 95 1014.1
20180425050715 11 30 0.0 0.0 0.00 2.69 0.00 95 1014.1
20180425050213 12 30 0.0 1.6 0.00 2.74 0.00 95 1014.1
20180425045713 12 30 0.0 1.6 0.00 2.79 0.00 95 1013.7
20180425045206 12 30 0.0 1.6 0.00 2.79 0.00 95 1013.7
20180425044705 12 30 0.0 1.6 0.00 2.82 0.00 95 1013.7
20180425044200 12 18 0.0 0.0 0.00 2.82 0.00 95 1013.7
20180425043657 12 18 0.0 0.0 0.00 2.82 0.00 95 1013.7
20180425043149 12 18 0.0 0.0 0.00 2.82 0.00 95 1013.7
20180425042617 12 18 0.0 0.0 0.00 2.84 0.00 95 1013.7
20180425042045 12 18 0.0 0.0 0.00 2.84 0.00 95 1013.7
20180425041544 12 18 0.0 0.0 0.00 2.84 0.00 95 1013.7
20180425041043 12 18 0.0 0.0 0.00 2.84 0.00 95 1013.7
20180425040542 12 18 0.0 1.6 0.00 2.87 0.00 95 1013.7
20180425040041 12 18 0.0 1.6 0.00 2.90 0.00 95 1013.7
20180425035540 12 18 0.0 3.2 0.00 3.00 2.90 95 1013.7
20180425035039 12 18 0.0 3.2 0.00 3.02 2.90 95 1013.7
20180425034538 12 18 1.6 4.8 0.00 3.17 2.90 95 1014.1
20180425034037 12 336 3.2 4.8 0.00 3.51 2.90 95 1014.1
20180425033536 12 97 0.0 1.6 0.00 3.58 2.90 95 1014.1
20180425033036 12 97 0.0 1.6 0.00 3.58 2.90 95 1014.1
20180425032535 12 97 1.6 1.6 0.00 3.61 2.90 95 1014.1
20180425032034 12 98 0.0 1.6 0.00 3.61 2.90 95 1014.1
20180425031533 12 97 1.6 1.6 0.00 3.61 2.90 95 1014.1
20180425031032 12 49 1.6 1.6 0.00 3.61 2.90 95 1014.1
20180425030531 12 49 1.6 1.6 0.00 3.61 2.90 95 1014.4
20180425030030 12 49 0.0 0.0 0.00 3.61 2.90 95 1014.4
20180425025529 12 49 0.0 0.0 0.00 3.63 2.90 95 1014.4
20180425025028 12 50 0.0 0.0 0.00 3.66 2.90 95 1014.4
20180425024528 12 49 0.0 0.0 0.00 3.68 2.90 95 1014.4
20180425024027 12 49 0.0 0.0 0.00 3.71 2.90 95 1014.4
20180425023526 12 49 0.0 0.0 0.00 3.73 2.90 95 1014.4
20180425023024 12 49 0.0 0.0 0.00 3.78 2.90 95 1014.1
20180425022524 12 48 0.0 0.0 0.00 3.84 2.90 95 1014.4
20180425022023 12 49 0.0 0.0 0.00 3.91 2.90 95 1014.1
20180425021522 12 49 0.0 0.0 0.00 3.94 2.90 95 1014.1
20180425021021 12 49 0.0 0.0 0.00 3.96 2.90 95 1013.7
20180425020520 12 49 0.0 0.0 0.00 3.96 2.90 95 1013.7
20180425020019 12 49 0.0 0.0 0.00 3.96 2.90 95 1013.7
20180425015447 12 49 0.0 0.0 0.00 3.96 2.90 95 1013.7
20180425014945 12 49 0.0 0.0 0.00 4.01 2.90 95 1013.7
20180425014444 12 48 0.0 0.0 0.00 4.06 2.90 94 1013.7
20180425013943 12 49 0.0 1.6 0.00 4.09 2.90 94 1013.7
20180425013442 12 49 0.0 1.6 0.00 4.19 2.90 94 1013.7
20180425012942 12 49 1.6 1.6 0.00 4.22 2.90 94 1013.7
20180425012440 12 49 0.0 0.0 0.00 4.22 2.90 94 1013.7
20180425011939 12 49 0.0 0.0 0.00 4.24 2.90 94 1013.4
20180425011438 12 49 0.0 0.0 0.00 4.27 2.90 94 1013.4
20180425010938 12 49 0.0 0.0 0.00 4.27 2.90 94 1013.4
20180425010436 12 49 0.0 0.0 0.00 4.27 2.90 94 1013.4
20180425005935 13 49 0.0 0.0 0.00 4.27 2.90 93 1013.4
20180425005434 13 49 0.0 1.6 0.00 4.27 2.90 93 1013.4
20180425004933 13 49 0.0 1.6 0.00 4.27 2.90 93 1013.0
20180425004432 13 49 0.0 1.6 0.00 4.27 2.90 93 1013.0
20180425003931 13 49 0.0 1.6 0.00 4.27 2.90 93 1013.0
20180425003431 13 49 0.0 1.6 0.00 4.27 2.90 93 1013.0
20180425002930 13 49 0.0 1.6 0.03 4.27 2.90 92 1012.7
20180425002429 14 49 1.6 1.6 0.03 4.27 2.90 92 1012.7
20180425001927 14 50 0.0 0.0 0.03 4.27 2.90 92 1012.7
20180425001427 14 50 0.0 0.0 0.03 4.27 2.90 92 1012.7
20180425000926 14 50 0.0 1.6 0.05 4.27 2.90 92 1012.7
20180425000425 14 49 0.0 1.6 0.05 4.27 2.90 92 1012.7
20180424235924 14 49 0.0 1.6 0.05 4.27 2.90 92 1012.7
20180424235422 14 49 1.6 1.6 0.08 4.27 2.90 91 1012.7
20180424234921 15 246 0.0 1.6 0.08 4.27 2.90 91 1012.7
20180424234421 15 245 0.0 1.6 0.08 4.27 2.90 91 1012.7
20180424233920 15 245 1.6 1.6 0.08 4.27 2.90 90 1012.7
20180424233418 15 240 0.0 0.0 0.08 4.29 2.90 89 1012.7
20180424232917 15 240 0.0 0.0 0.05 4.29 2.87 89 1012.7
20180424232417 15 240 0.0 0.0 0.05 4.29 2.87 89 1012.7
20180424231916 15 240 0.0 1.6 0.05 4.29 2.87 88 1012.4
20180424231415 15 240 0.0 3.2 0.03 4.27 2.84 88 1012.4
20180424230914 15 240 0.0 3.2 0.03 4.27 2.84 87 1012.4
20180424230413 16 240 1.6 4.8 0.03 4.27 2.84 85 1012.4
20180424225912 16 140 1.6 4.8 0.03 4.27 2.84 83 1012.4
20180424225411 16 94 0.0 1.6 0.00 4.24 2.82 83 1012.4
20180424224910 16 58 1.6 8.0 0.00 4.24 2.82 82 1012.4
20180424224409 16 229 0.0 8.0 0.00 4.24 2.82 80 1012.4
20180424223908 16 218 1.6 12.9 0.00 4.24 2.82 79 1012.4
20180424223407 17 258 3.2 12.9 0.00 4.24 2.82 77 1012.4
20180424222906 17 243 3.2 8.0 0.00 4.24 2.82 76 1012.4
20180424222406 17 282 1.6 8.0 0.00 4.24 2.82 75 1012.4
20180424221905 17 232 3.2 9.7 0.00 4.24 2.82 75 1012.4
20180424221404 17 222 4.8 9.7 0.00 4.24 2.82 75 1012.0
20180424220903 17 230 3.2 9.7 0.00 4.24 2.82 75 1012.0
20180424220402 18 266 3.2 11.3 0.00 4.24 2.82 75 1012.0
20180424215901 18 142 0.0 11.3 0.00 4.24 2.82 76 1012.0